Wind_Speed
46 46 45 45 46 46 45 46 48 48 46 44 41 40 40 40 40 40 39 39 39 39 39 37 37 38 39 40 41 42 42 40 37 36 37 39 40 42 43 40 38 38
43 43 42 42 44 44 44 46 49 50 48 44 41 39 37 39 41 41 40 40 40 41 41 38 35 36 37 39 39 39 39 38 38 38 39 38 38 40 43 42 40 41
39 39 38 38 40 39 40 45 49 51 50 46 41 38 36 38 41 41 42 42 42 43 42 38 37 37 38 39 40 39 38 36 38 41 42 42 40 41 44 44 44 46
35 34 33 34 35 34 37 44 49 52 51 47 42 38 36 39 40 40 42 42 41 43 44 39 37 40 41 41 41 42 40 38 39 42 45 46 46 47 48 47 47 47
32 30 29 31 32 32 36 44 50 52 50 47 44 37 34 37 39 38 40 40 38 40 44 42 40 41 42 42 43 43 43 44 45 47 48 48 49 50 50 48 48 49
29 27 27 28 29 31 37 44 49 52 50 47 43 37 34 37 36 34 36 39 37 36 40 43 43 42 43 44 45 45 46 48 50 50 51 50 50 51 50 49 50 49
26 24 24 26 27 31 37 43 48 51 50 46 41 37 37 38 35 30 32 37 38 37 39 42 44 45 44 45 46 48 49 50 51 52 51 51 52 52 51 50 51 48
23 21 21 23 25 30 36 41 46 50 49 44 40 36 36 38 35 30 29 33 36 39 42 42 43 45 46 47 49 50 51 52 54 55 54 54 55 54 53 53 52 50
19 17 19 21 25 29 32 37 44 48 47 43 39 35 34 36 37 33 31 33 35 41 46 46 44 44 45 49 54 55 54 53 55 56 55 56 55 53 52 51 50 50
17 16 18 22 26 30 32 36 43 46 46 43 38 35 34 35 37 37 35 34 37 42 45 43 44 46 46 48 54 59 60 58 56 55 53 53 52 51 50 50 50 50
17 17 21 25 28 31 32 35 41 44 45 43 38 36 37 35 36 39 38 37 39 42 42 38 39 42 45 48 51 56 60 62 60 57 56 56 56 56 55 53 52 51
18 20 24 27 30 32 32 32 37 42 44 44 40 38 38 35 34 38 40 41 42 43 44 42 41 42 46 49 51 52 55 60 63 63 62 63 63 62 59 56 54 52
19 21 25 28 30 33 33 31 34 39 43 45 40 37 37 35 33 35 37 38 40 42 44 46 49 52 53 52 53 54 54 56 60 62 63 63 62 62 60 57 55 54
21 22 26 28 30 33 33 32 32 37 44 46 40 35 36 36 35 35 36 35 35 38 42 46 51 55 57 56 56 56 56 57 58 59 60 60 60 61 60 58 56 56
22 23 27 29 30 31 31 32 32 35 43 46 41 37 37 37 37 37 39 41 39 38 41 46 50 52 54 54 54 55 56 58 59 60 61 62 62 62 61 59 58 57
24 24 26 29 30 30 28 29 31 34 41 44 43 41 40 39 39 36 37 43 46 46 46 47 47 49 50 50 50 51 54 55 57 60 61 62 62 61 60 59 58 57
27 25 25 27 29 30 28 28 31 35 40 43 42 41 39 39 40 38 37 39 43 49 53 53 51 49 48 48 49 50 52 53 54 55 57 57 57 57 57 57 57 57
29 28 26 26 28 30 30 30 31 35 39 42 41 39 37 36 37 39 40 41 42 46 51 54 55 54 50 49 50 50 51 53 54 55 56 56 56 56 56 56 57 57
31 31 30 29 29 31 32 32 32 34 37 40 41 39 38 37 37 38 42 45 47 47 47 49 53 54 53 51 51 50 50 51 53 54 55 56 56 56 56 57 57 57
33 34 34 33 32 33 34 35 35 35 37 40 42 41 40 40 41 42 43 45 48 48 49 50 51 53 54 54 54 54 53 53 54 55 55 56 56 56 56 57 57 58
35 36 37 37 37 36 37 38 39 38 39 41 44 45 44 44 45 45 44 45 47 48 49 50 51 53 56 56 56 57 57 57 58 58 59 59 59 59 59 60 60 60
38 38 40 40 40 40 40 42 43 43 44 45 47 49 50 50 50 49 48 47 48 49 49 50 51 53 54 56 57 58 59 60 60 60 61 61 61 62 63 63 64 63
41 41 42 43 43 44 44 45 46 46 48 50 51 53 55 56 55 54 53 52 52 52 51 52 53 53 53 54 55 56 58 59 60 61 61 62 64 65 66 67 68 67
42 44 45 46 47 47 48 49 49 49 50 51 53 55 57 58 59 59 58 57 56 55 54 53 53 54 54 54 54 55 57 58 59 60 62 64 66 68 69 70 72 71
40 46 47 48 50 51 51 52 53 53 54 54 55 56 57 58 59 60 61 61 60 59 59 58 57 58 58 58 58 57 57 58 60 62 64 66 69 72 73 74 76 75
36 44 49 50 51 53 55 55 56 57 58 58 59 59 60 60 60 61 61 62 63 62 62 63 64 64 64 64 64 63 62 61 61 61 63 65 67 70 73 74 75 75
Wind_Direction
279 273 265 257 251 244 237 231 227 223 218 215 213 211 214 217 216 214 216 221 226 229 231 235 241 244 245 246 248 249 249 248 248 248 247 249 249 250 253 258 263 264
277 272 265 258 251 245 237 229 223 219 214 211 209 209 215 220 218 214 213 217 222 225 227 230 237 242 243 242 244 246 248 246 244 243 244 246 248 251 255 258 260 262
279 272 265 256 249 242 232 223 218 216 211 207 206 208 217 223 221 217 215 217 222 225 226 228 235 239 240 239 239 241 245 244 240 239 241 243 246 253 259 262 264 267
282 274 264 253 245 236 225 217 214 212 208 203 203 207 217 223 222 221 220 220 223 226 226 227 234 239 240 239 239 239 241 241 238 238 241 243 248 255 260 265 269 271
285 276 262 249 239 228 218 213 211 209 204 201 203 207 215 221 222 225 226 224 224 226 226 227 232 239 242 243 243 242 241 241 240 241 244 248 253 257 261 265 268 269
286 274 259 245 233 220 212 210 208 205 201 200 202 207 213 217 221 228 232 231 228 227 228 230 234 239 244 246 246 246 245 244 244 245 249 252 255 258 262 265 265 266
283 270 255 240 226 216 209 207 205 203 200 199 202 208 212 215 220 226 232 234 233 232 233 236 238 240 244 246 245 245 246 246 247 249 251 253 255 258 262 263 263 264
276 263 248 231 219 212 207 204 204 203 200 198 201 209 213 216 220 224 229 231 230 231 233 235 240 243 243 242 243 244 246 247 249 251 253 256 257 258 259 260 260 262
266 251 235 219 211 207 203 203 205 204 200 197 200 207 211 218 223 225 224 222 221 228 232 234 239 243 245 242 241 242 244 246 250 252 254 255 255 255 256 257 260 262
252 235 220 210 205 199 197 203 207 206 201 196 197 204 209 215 221 224 222 217 220 229 233 235 237 240 245 244 241 239 240 243 246 249 250 250 250 254 257 260 262 264
241 224 213 208 202 195 195 203 208 206 202 195 195 204 209 211 215 218 221 221 224 230 233 234 236 237 240 243 242 241 241 241 242 245 247 249 253 259 262 263 264 266
234 222 213 208 203 198 198 203 206 205 202 197 198 204 209 214 217 218 221 226 230 234 238 239 239 238 240 243 244 244 243 242 243 245 248 252 256 260 262 263 265 267
230 221 214 211 208 205 203 203 205 204 201 199 201 206 210 216 221 219 221 226 229 233 237 240 241 242 244 246 246 246 245 245 245 247 249 252 255 257 260 262 265 266
228 220 214 212 211 210 209 207 207 205 202 200 203 209 214 220 225 224 221 222 225 228 230 235 239 242 246 248 248 248 248 248 248 249 251 253 255 257 259 262 263 265
227 221 215 213 212 212 212 211 210 208 204 203 206 212 218 225 231 233 229 225 225 228 230 234 238 242 246 249 249 250 251 250 251 252 253 255 257 259 260 262 263 266
226 223 219 216 213 212 212 211 211 209 207 206 210 216 222 228 233 237 239 235 233 234 235 236 239 242 245 247 248 248 249 250 251 253 255 256 258 259 260 262 264 266
223 224 222 220 216 213 211 210 209 208 207 208 213 219 225 232 235 236 240 242 241 240 240 239 241 244 246 248 248 248 248 249 251 253 254 256 258 259 261 262 264 266
221 222 222 221 218 214 212 212 211 209 208 210 215 221 225 231 235 233 235 238 240 241 242 243 244 246 248 249 249 249 249 250 252 254 256 258 260 262 263 264 265 266
219 220 221 219 218 216 214 214 214 213 212 213 217 222 225 229 231 230 232 236 239 240 243 244 245 247 248 248 248 249 250 252 254 255 257 259 260 262 264 265 266 267
218 217 219 219 218 217 216 216 217 216 216 217 218 220 223 226 228 228 230 235 239 240 242 243 244 245 247 248 249 251 253 254 255 256 257 258 259 261 262 263 264 265
220 217 217 219 219 218 217 218 219 219 219 220 220 221 222 224 227 228 231 235 239 241 242 244 245 246 247 249 251 253 255 256 257 258 259 260 261 261 262 262 262 262
224 219 216 217 219 219 219 219 220 220 221 221 222 222 224 225 226 228 231 235 239 241 243 245 247 248 249 250 251 253 255 257 259 260 262 263 264 264 264 264 264 264
227 222 218 217 218 219 220 221 221 221 222 222 223 224 226 228 229 230 232 236 240 242 244 246 248 250 252 253 253 253 255 257 259 261 262 263 264 264 265 265 265 266
230 226 221 218 218 218 220 222 222 222 222 223 225 227 229 230 232 233 235 238 240 242 244 246 247 249 250 252 253 254 256 257 259 260 261 262 263 264 264 265 266 266
234 229 225 221 219 218 219 222 223 224 224 226 228 230 232 233 235 236 238 240 242 244 245 246 247 249 250 251 252 254 255 257 259 260 261 263 264 265 266 267 268 268
242 233 229 224 221 220 219 220 223 225 227 229 231 233 234 236 237 238 239 241 243 245 247 248 250 251 252 253 254 254 255 257 259 261 263 264 266 267 268 268 269 270
Height
10633 10632 10632 10633 10635 10638 10642 10645 10649 10654 10658 10662 10666 10671 10675 10679 10682 10686 10689 10691 10693 10695 10697 10699 10700 10701 10702 10703 10704 10705 10707 10709 10712 10713 10714 10714 10714 10715 10716 10717 10716 10715
10625 10623 10623 10624 10626 10630 10634 10638 10643 10648 10652 10656 10661 10667 10672 10675 10678 10682 10685 10686 10688 10690 10692 10695 10696 10697 10698 10699 10701 10702 10704 10706 10708 10709 10709 10709 10710 10710 10711 10713 10713 10711
10617 10616 10616 10617 10619 10622 10627 10631 10637 10642 10646 10652 10658 10663 10668 10671 10674 10678 10680 10681 10684 10686 10689 10691 10693 10694 10695 10696 10698 10699 10701 10702 10704 10704 10704 10705 10706 10706 10705 10707 10708 10707
10610 10609 10609 10610 10613 10617 10622 10626 10631 10635 10641 10648 10654 10659 10663 10666 10670 10674 10676 10678 10681 10684 10685 10688 10690 10691 10692 10693 10695 10696 10698 10699 10699 10699 10699 10701 10702 10701 10701 10702 10703 10702
10604 10604 10604 10605 10608 10613 10617 10621 10625 10631 10638 10645 10650 10655 10658 10663 10667 10670 10673 10675 10679 10681 10683 10685 10686 10687 10688 10689 10691 10693 10694 10695 10695 10694 10695 10697 10698 10696 10697 10698 10698 10697
10600 10599 10600 10601 10604 10608 10612 10617 10622 10628 10635 10641 10646 10650 10654 10659 10664 10667 10670 10672 10675 10678 10680 10682 10682 10682 10683 10685 10687 10688 10689 10689 10690 10691 10691 10693 10693 10691 10692 10693 10692 10692
10597 10597 10597 10599 10602 10606 10610 10615 10620 10626 10631 10637 10642 10646 10649 10654 10659 10663 10666 10668 10671 10675 10676 10678 10678 10678 10680 10681 10682 10683 10684 10685 10685 10686 10687 10688 10687 10687 10687 10688 10687 10688
10595 10595 10596 10598 10601 10605 10609 10614 10619 10623 10629 10635 10639 10643 10646 10650 10654 10658 10661 10663 10666 10669 10671 10673 10674 10675 10677 10678 10678 10678 10680 10681 10680 10680 10681 10681 10681 10682 10683 10683 10683 10683
10594 10594 10595 10597 10600 10604 10609 10616 10619 10622 10627 10632 10637 10640 10644 10647 10650 10653 10656 10657 10660 10662 10665 10668 10670 10671 10672 10673 10673 10672 10674 10676 10674 10674 10675 10675 10676 10677 10678 10678 10678 10678
10593 10593 10595 10596 10599 10603 10608 10614 10617 10620 10625 10630 10634 10638 10641 10643 10646 10649 10651 10653 10654 10655 10657 10661 10665 10666 10666 10666 10665 10665 10667 10669 10668 10669 10669 10669 10670 10671 10672 10672 10672 10672
10592 10593 10594 10596 10599 10603 10606 10609 10613 10618 10622 10627 10631 10635 10638 10640 10642 10644 10647 10648 10650 10651 10652 10655 10659 10659 10657 10657 10657 10658 10660 10662 10663 10663 10664 10664 10664 10664 10665 10666 10666 10667
10590 10592 10593 10595 10598 10601 10604 10607 10610 10614 10619 10623 10628 10631 10634 10637 10638 10640 10642 10643 10645 10647 10647 10649 10652 10651 10649 10649 10650 10652 10655 10656 10657 10657 10657 10658 10658 10658 10659 10660 10660 10661
10589 10590 10592 10594 10597 10599 10602 10605 10608 10612 10616 10621 10626 10629 10631 10633 10634 10635 10637 10638 10640 10641 10642 10643 10643 10642 10642 10644 10645 10647 10649 10650 10651 10651 10651 10652 10652 10652 10653 10654 10655 10655
10587 10589 10591 10593 10595 10598 10601 10604 10607 10610 10614 10618 10623 10627 10628 10628 10629 10630 10631 10632 10633 10635 10637 10637 10635 10635 10637 10640 10641 10642 10644 10644 10645 10645 10645 10646 10646 10646 10647 10648 10649 10649
10585 10587 10588 10591 10593 10596 10599 10602 10605 10608 10611 10616 10619 10622 10623 10623 10624 10626 10626 10626 10628 10629 10631 10631 10629 10630 10632 10634 10636 10637 10637 10638 10638 10639 10639 10640 10640 10640 10641 10642 10642 10642
10583 10584 10586 10589 10591 10594 10597 10600 10602 10605 10609 10613 10615 10616 10617 10618 10619 10622 10621 10621 10622 10623 10624 10625 10625 10626 10627 10628 10630 10630 10631 10632 10632 10632 10633 10633 10634 10634 10635 10635 10636 10636
10580 10582 10583 10586 10588 10591 10594 10597 10599 10602 10605 10608 10610 10611 10613 10614 10615 10618 10617 10616 10617 10617 10617 10619 10620 10621 10622 10623 10623 10624 10625 10625 10626 10626 10627 10627 10627 10628 10628 10628 10629 10629
10577 10579 10580 10583 10585 10588 10591 10593 10596 10598 10601 10604 10605 10607 10609 10610 10611 10613 10613 10612 10610 10609 10610 10613 10614 10615 10616 10617 10617 10618 10618 10619 10620 10620 10621 10621 10621 10621 10621 10621 10622 10622
10574 10575 10577 10579 10581 10584 10587 10589 10592 10594 10597 10599 10601 10602 10604 10605 10606 10607 10607 10605 10604 10604 10605 10607 10608 10609 10610 10611 10611 10612 10612 10613 10614 10614 10615 10615 10615 10615 10614 10614 10614 10614
10570 10571 10573 10575 10577 10580 10583 10585 10587 10590 10592 10594 10596 10598 10599 10599 10600 10600 10601 10599 10598 10600 10600 10600 10601 10602 10604 10605 10606 10606 10606 10607 10607 10607 10608 10608 10608 10608 10608 10607 10606 10606
10567 10568 10569 10571 10573 10575 10578 10580 10582 10585 10587 10589 10590 10592 10592 10592 10593 10593 10594 10593 10592 10593 10594 10594 10594 10595 10596 10598 10600 10600 10600 10600 10600 10600 10601 10601 10601 10601 10600 10599 10599 10599
10562 10563 10565 10566 10569 10571 10572 10574 10577 10579 10581 10582 10583 10584 10584 10584 10584 10586 10587 10586 10585 10585 10587 10588 10588 10589 10590 10592 10593 10593 10593 10593 10593 10593 10593 10593 10593 10592 10592 10591 10590 10590
10557 10558 10560 10561 10563 10565 10567 10569 10570 10572 10574 10575 10576 10576 10576 10576 10577 10579 10580 10579 10578 10579 10580 10581 10582 10583 10584 10585 10586 10586 10586 10586 10587 10587 10586 10585 10584 10583 10583 10582 10580 10581
10551 10552 10554 10555 10557 10559 10561 10563 10564 10565 10567 10568 10569 10569 10570 10570 10572 10573 10573 10572 10572 10572 10573 10574 10575 10576 10576 10577 10578 10579 10579 10580 10580 10580 10578 10577 10575 10574 10574 10573 10570 10573
10544 10545 10547 10549 10551 10552 10554 10556 10558 10559 10560 10560 10561 10562 10563 10564 10565 10566 10566 10565 10565 10566 10566 10567 10568 10568 10569 10570 10571 10572 10573 10572 10572 10572 10571 10570 10567 10564 10564 10563 10560 10563
10538 10539 10540 10542 10544 10545 10547 10549 10550 10552 10553 10553 10554 10555 10556 10557 10558 10558 10559 10558 10558 10559 10559 10560 10560 10560 10561 10562 10563 10564 10565 10564 10564 10564 10562 10561 10559 10555 10553 10552 10551 10552